Location: Unspecified
(0.0000°N, 0.0000°E)
Time: 00:45:25
(UTC+00:00)

SWISSCUBE - Pass Details

Date: 04 December 2022
Orbit: 696 x 708 km, 98.5° (Epoch: 27 January)

Event Time Altitude Azimuth Distance (km) Brightness Sun altitude
Exits shadow 20:48:23 12° 210° (SSW) 2,050 ? -40.4°
Drops below altitude 10° 20:48:39 10° 209° (SSW) 2,158 ? -40.5°
Sets 20:50:59 0° 203° (SSW) 3,076 ? -41.0°
